Temperature
18 18 18 18 18 18 18 18 18 18 18 18 19 19 19 19 18 19 18 18 18 18 18 18 18 17 17 17 17 17 17 17 17 17 16 16 16 16 16 16 16 16 16
18 18 18 18 18 18 18 18 18 18 18 18 19 19 19 19 18 18 18 18 18 18 18 18 18 17 17 17 17 17 17 17 17 17 16 16 16 16 16 16 16 16 16
18 18 18 18 18 18 18 18 18 18 18 18 18 19 19 19 18 18 18 18 18 18 18 18 18 18 18 18 17 17 17 17 17 17 16 16 16 16 16 16 16 16 16
18 18 18 18 18 18 18 18 18 18 18 18 18 19 19 19 19 18 18 18 18 18 18 18 18 18 18 18 17 17 17 17 17 17 17 16 16 16 16 16 16 16 16
19 18 18 18 18 18 18 18 18 18 18 18 19 19 19 19 19 19 18 18 18 18 18 18 18 18 18 18 18 17 17 17 17 17 17 17 16 16 16 16 16 16 16
19 18 18 18 19 19 19 19 18 18 18 18 19 19 19 19 19 19 19 18 18 18 18 18 18 18 18 18 18 17 17 17 17 17 17 17 17 16 16 16 16 16 16
19 18 18 19 19 19 18 18 18 18 18 18 18 19 19 19 19 19 19 19 18 18 18 18 18 18 18 18 17 17 17 17 17 17 17 17 17 16 16 16 16 16 16
19 18 19 19 19 19 18 19 19 18 18 18 18 18 19 19 19 19 19 19 18 18 18 18 18 17 18 18 17 17 17 17 17 17 17 17 16 16 16 16 16 16 16
19 19 18 18 18 18 18 18 18 18 18 18 18 18 18 19 19 19 19 19 19 18 18 18 18 18 17 17 17 17 17 17 17 17 17 17 16 16 16 16 16 16 16
19 19 19 19 19 18 18 18 18 18 18 18 18 18 19 19 18 19 19 19 18 18 18 18 18 18 17 17 17 17 17 17 17 17 17 16 16 16 16 16 16 16 16
19 19 19 19 19 19 18 18 18 18 18 18 18 18 18 18 18 18 18 18 18 18 18 18 18 18 17 17 17 17 17 17 17 17 17 16 16 16 16 16 16 16 16
19 19 19 19 19 19 18 18 18 18 18 18 18 18 18 18 18 18 18 18 18 18 18 18 18 17 17 17 17 17 17 17 17 17 16 16 16 16 16 16 16 16 15
19 19 18 19 18 18 18 18 18 18 18 18 18 18 18 18 18 18 18 18 18 18 17 17 17 17 17 17 17 17 17 16 16 16 16 16 16 16 16 16 15 15 15
19 19 19 18 18 18 18 18 18 18 18 18 18 18 18 18 18 18 18 18 17 17 17 17 16 16 16 16 16 16 16 16 16 16 16 16 16 15 15 15 15 15 15
18 19 19 18 18 18 18 18 18 18 18 18 18 17 17 17 17 17 17 17 17 17 16 16 16 16 16 16 16 16 16 15 15 15 15 15 15 15 15 15 15 15 15
18 18 18 18 18 18 17 17 17 17 17 17 17 17 17 17 17 17 17 17 17 17 16 16 16 16 15 15 15 15 15 15 15 15 15 15 15 14 14 14 14 14 14
18 18 18 18 18 17 17 17 17 17 17 17 17 17 17 17 17 17 16 17 17 16 16 15 15 15 15 15 15 15 15 14 14 14 14 14 14 14 14 14 14 14 14
18 18 17 17 17 17 17 17 17 17 17 17 16 16 16 16 16 16 16 16 16 16 16 15 15 15 14 14 14 14 14 14 14 13 14 14 13 13 13 13 13 13 13
17 17 17 17 17 17 17 16 16 16 16 16 16 16 16 16 16 16 16 16 16 15 15 15 14 14 14 14 14 14 13 13 13 13 13 13 13 13 13 13 13 13 12
17 17 17 17 17 16 16 16 16 16 16 16 16 15 15 15 15 15 15 15 15 15 15 14 14 13 13 13 13 13 13 13 12 12 12 12 12 12 12 12 12 12 12
17 17 17 16 16 16 16 16 16 15 15 15 15 15 15 15 15 15 15 15 14 14 14 13 13 13 13 13 13 12 12 12 12 12 12 12 12 12 12 11 11 11 11
16 16 16 16 16 15 15 15 15 15 15 15 14 14 14 14 14 14 14 14 14 14 13 13 12 12 12 12 12 12 12 12 11 11 12 11 11 11 11 11 11 11 11
16 16 16 16 15 15 15 15 15 14 14 14 14 14 13 13 13 14 13 13 13 13 13 13 12 12 12 12 12 11 12 11 11 11 11 11 11 11 11 11 11 10 10
16 16 15 15 15 15 14 14 14 14 14 13 13 13 13 13 13 13 13 13 12 12 12 12 12 12 11 11 11 11 11 11 11 11 11 10 10 10 10 10 10 10 10
15 15 15 15 14 14 14 14 14 13 13 13 13 13 13 12 12 12 12 12 12 12 11 11 11 11 11 11 11 11 11 11 10 10 10 10 10 10 10 10 10 10 10
15 14 14 14 14 14 14 13 13 13 13 13 12 12 12 12 12 12 12 11 11 11 11 11 11 11 11 10 10 10 10 10 10 9 10 10 9 9 9 9 9 9 9
Wind_Speed
2 3 2 1 2 2 3 1 1 0 1 2 1 2 2 3 6 9 11 14 14 13 12 12 11 11 11 11 11 10 10 10 10 10 10 10 10 10 10 10 9 9 9
3 3 1 1 2 2 3 1 0 0 1 1 1 1 1 2 6 9 11 13 14 14 13 12 11 11 11 11 11 11 11 11 11 11 11 11 11 11 11 11 10 10 10
4 2 1 0 1 2 2 1 0 0 1 1 1 1 1 1 3 7 10 11 11 13 14 14 13 12 12 12 12 12 13 12 12 12 12 12 12 12 12 12 11 11 11
3 2 1 1 1 1 1 1 1 1 1 1 1 2 1 2 4 5 8 10 11 11 13 15 14 14 14 13 13 13 14 14 14 14 13 13 13 14 13 13 13 13 13
3 2 1 1 1 1 1 1 1 0 1 2 2 3 2 3 3 4 5 7 9 11 11 14 16 15 15 14 14 14 14 15 15 15 15 15 14 14 15 15 15 15 14
3 2 2 2 2 1 1 1 1 2 2 3 4 2 3 3 3 3 4 5 7 10 12 12 13 13 15 15 15 15 16 16 15 16 16 16 15 15 15 16 16 16 16
4 3 1 2 2 1 2 2 2 2 3 3 2 2 2 3 3 4 3 3 4 6 8 10 11 11 11 16 16 16 16 16 16 16 16 17 17 17 17 17 17 17 17
4 4 3 3 2 2 2 3 2 2 3 2 2 1 2 2 2 3 3 3 2 2 3 7 8 9 9 10 13 16 17 16 16 16 16 16 16 17 16 16 16 16 17
4 3 2 2 2 2 3 3 3 3 3 2 2 2 1 1 1 1 2 2 3 3 2 2 5 7 8 8 8 11 14 15 16 16 16 16 16 16 16 16 15 14 15
3 4 3 3 2 2 2 4 3 2 3 3 2 2 2 1 1 1 1 0 2 2 1 1 1 3 6 6 6 7 11 13 13 13 14 14 14 15 15 15 15 14 14
3 3 3 2 3 3 3 3 2 2 2 2 2 2 2 2 2 2 2 1 1 0 1 1 1 2 3 5 4 4 8 9 9 9 10 11 11 12 13 14 14 13 13
2 3 3 3 3 2 2 2 2 3 2 2 2 2 2 1 1 2 2 2 2 2 1 1 1 2 2 4 4 4 6 6 6 7 7 7 7 8 10 11 12 12 12
2 2 2 2 2 2 2 2 2 2 2 3 3 3 2 2 1 1 2 2 1 1 0 0 1 2 3 5 5 6 5 5 4 4 4 4 4 3 4 5 7 8 7
1 2 2 2 2 2 2 1 2 2 2 2 3 3 3 2 2 2 1 1 1 1 0 0 2 3 4 5 5 7 6 5 4 4 3 2 2 2 1 1 1 2 3
1 1 1 1 1 1 1 1 1 1 1 1 1 2 2 2 2 1 1 1 1 1 1 0 1 3 4 5 7 8 8 8 7 5 4 3 3 2 2 2 2 2 2
1 0 0 1 1 0 0 0 1 1 1 1 1 2 2 2 1 1 1 1 0 1 1 1 2 3 3 5 8 8 8 9 7 7 6 6 6 6 6 6 6 5 4
0 0 1 0 1 1 0 1 1 1 1 2 2 2 2 3 3 3 2 1 1 0 1 1 2 3 4 4 4 5 6 6 7 8 9 9 8 8 8 8 8 7 6
1 1 1 1 1 1 2 2 2 3 4 4 5 5 5 4 4 4 3 2 2 1 2 2 2 2 3 3 2 2 4 6 7 8 9 9 10 10 9 9 8 8 7
2 2 2 2 3 3 3 4 5 6 6 6 6 6 6 6 5 4 4 4 3 3 3 3 2 2 2 3 3 3 4 4 6 7 9 9 9 9 9 8 8 7 7
3 4 4 4 5 6 5 5 6 6 7 7 7 8 8 7 6 5 5 5 4 4 4 3 3 2 2 3 3 2 3 2 3 4 5 7 8 8 7 7 6 5 5
5 5 6 6 6 6 6 5 5 6 6 6 7 8 9 11 12 9 7 6 5 4 4 4 4 4 3 3 3 2 3 2 2 2 2 3 5 4 4 5 4 4 4
6 6 7 8 8 7 9 10 7 6 6 6 6 5 7 9 11 12 13 13 10 7 5 4 4 4 4 4 3 2 2 1 1 1 1 0 2 2 3 4 4 4 4
7 8 8 8 8 9 11 11 10 6 6 6 6 6 7 8 8 6 9 11 11 12 9 5 5 4 4 4 3 3 3 2 1 1 1 1 1 1 1 3 5 4 3
7 7 7 8 8 9 11 10 9 6 7 7 7 7 7 7 8 7 7 8 8 8 7 5 5 4 4 4 4 3 2 2 2 3 3 2 1 1 0 2 4 4 3
7 7 7 7 8 8 10 9 6 4 6 7 7 8 7 6 9 8 6 6 6 5 8 8 7 6 6 8 8 4 4 3 2 3 4 3 2 2 1 1 2 4 4
7 7 7 7 8 7 10 11 7 3 5 5 6 7 11 9 9 9 5 5 5 4 3 4 3 4 5 7 9 6 4 4 3 3 4 4 3 3 2 1 0 1 2
Wind_Direction
111 107 102 134 167 154 144 119 97 68 343 335 356 36 72 110 128 134 148 163 167 172 176 180 184 188 189 191 191 193 195 196 197 197 197 198 197 195 194 195 195 197 198
95 87 92 34 58 57 63 71 118 53 323 332 19 360 308 142 142 145 154 167 175 179 182 185 190 195 196 198 199 201 202 206 206 205 205 206 205 203 203 205 206 207 207
121 128 118 100 79 84 69 13 54 259 249 247 246 237 231 196 145 146 158 164 177 189 190 192 196 200 202 204 206 209 210 212 211 211 211 212 213 212 212 213 215 215 214
139 144 128 144 140 166 176 205 238 240 281 282 257 259 217 177 169 168 171 173 176 184 193 200 201 204 207 210 212 214 216 216 216 216 216 217 218 220 220 220 220 220 220
174 182 130 120 239 241 227 244 143 241 267 265 254 236 229 214 187 192 183 179 182 181 185 197 203 207 211 214 217 218 220 220 220 220 220 221 223 224 224 224 223 224 224
187 190 162 189 233 252 275 285 292 265 265 259 264 254 230 213 187 191 195 184 186 191 190 188 193 210 217 218 220 221 223 223 222 223 223 223 224 226 226 227 227 227 228
196 195 228 185 212 240 256 271 256 252 258 255 263 279 262 220 204 188 195 187 189 198 183 175 183 195 207 219 223 222 222 224 224 224 224 225 226 228 229 229 228 229 230
200 211 199 229 217 228 250 262 266 267 267 256 236 257 285 284 254 210 184 192 189 158 172 184 182 187 192 197 217 222 223 225 226 226 226 225 227 228 230 231 230 231 231
200 227 198 238 249 239 232 241 248 248 260 268 248 226 238 246 271 265 209 194 164 163 190 189 178 185 184 183 198 213 220 225 228 228 228 227 226 228 229 231 232 233 234
206 205 201 217 247 260 245 248 238 247 248 263 269 254 230 218 222 280 300 235 183 173 161 180 163 163 185 184 185 191 207 219 225 228 227 227 225 226 229 230 233 235 235
199 217 203 205 223 243 251 269 303 283 271 265 282 277 260 240 233 218 246 294 328 240 173 155 126 98 148 165 176 185 192 205 215 225 229 228 228 228 229 231 233 237 241
204 226 224 214 228 240 237 244 263 267 273 279 279 281 275 255 252 235 233 245 234 241 207 115 121 125 108 128 137 134 163 181 197 215 225 230 235 237 237 234 234 237 242
192 220 237 218 231 241 246 243 237 258 259 260 259 268 273 272 264 251 240 247 241 238 163 75 106 106 106 103 109 113 121 142 165 186 200 209 215 230 239 243 240 241 244
221 202 205 208 224 249 258 242 248 240 247 256 261 268 274 273 265 253 249 236 264 291 29 102 54 61 75 88 96 102 91 109 122 137 159 174 179 192 210 243 257 250 252
248 150 187 201 205 238 283 274 269 264 263 256 278 287 285 282 280 262 253 218 202 239 260 78 57 48 63 76 85 90 84 85 96 103 111 113 108 95 79 72 72 66 56
330 343 218 195 161 112 26 336 338 334 329 331 1 357 340 329 311 296 258 291 288 218 243 55 60 55 55 67 84 87 84 80 87 99 101 100 98 90 86 81 75 70 61
325 328 273 152 93 71 76 68 52 28 20 20 19 35 24 10 12 11 25 40 30 109 157 72 54 53 51 56 84 95 91 95 87 98 104 104 103 97 90 84 79 72 64
75 56 39 68 82 74 62 49 40 51 51 47 42 39 30 28 32 19 15 24 30 46 116 108 59 45 42 40 81 92 89 89 92 97 106 104 99 94 89 86 81 75 69
67 62 67 68 62 59 62 62 63 61 58 52 49 46 36 29 30 32 27 18 20 43 69 94 76 55 42 30 40 59 72 85 96 95 99 106 105 102 100 96 89 83 75
69 69 71 69 65 57 56 64 73 69 67 62 57 55 48 42 32 26 34 26 34 52 64 78 79 60 42 15 26 50 55 44 59 79 82 104 110 109 106 99 92 89 82
77 74 72 68 69 66 53 59 74 76 71 67 65 68 66 62 55 50 48 37 37 45 58 67 68 56 39 22 11 19 58 67 57 61 84 113 121 110 108 103 103 100 89
78 75 71 67 62 57 43 51 66 73 68 65 68 69 72 63 63 64 62 57 54 55 53 60 56 53 35 19 4 24 41 26 33 3 23 95 127 105 129 133 123 115 109
83 77 75 75 71 52 43 47 50 69 68 62 59 55 61 58 55 56 61 59 55 52 56 66 64 48 36 13 2 12 13 17 15 351 19 5 60 81 104 131 152 140 131
90 86 81 80 77 55 41 41 43 68 69 64 59 58 63 53 44 46 60 60 55 45 48 62 65 55 47 22 10 10 5 19 53 31 25 3 6 356 35 159 184 190 202
95 91 87 82 76 52 34 35 38 83 84 74 65 56 60 55 37 46 65 66 64 60 64 74 78 72 53 39 26 17 10 25 37 35 13 1 348 336 327 180 214 235 240
102 98 89 81 75 59 34 31 27 79 97 92 80 66 58 51 36 35 51 50 47 31 42 69 77 68 61 49 41 32 19 18 17 22 6 352 348 346 341 341 329 235 277
Height
1554 1555 1555 1556 1558 1558 1559 1560 1561 1562 1562 1563 1563 1563 1564 1564 1564 1564 1564 1565 1565 1566 1566 1567 1568 1569 1570 1571 1572 1573 1574 1575 1576 1577 1578 1579 1580 1581 1583 1584 1585 1586 1587
1555 1556 1556 1557 1558 1559 1560 1560 1561 1562 1562 1563 1563 1563 1564 1564 1564 1564 1564 1564 1565 1566 1566 1566 1567 1568 1569 1570 1571 1572 1573 1573 1575 1576 1577 1578 1579 1580 1581 1582 1583 1584 1585
1556 1557 1558 1558 1559 1560 1560 1560 1561 1561 1562 1562 1563 1563 1563 1564 1564 1564 1564 1564 1564 1565 1565 1566 1566 1567 1568 1569 1569 1570 1571 1572 1573 1574 1575 1576 1577 1578 1579 1581 1582 1583 1584
1557 1557 1558 1559 1559 1560 1560 1560 1561 1561 1561 1562 1562 1562 1562 1563 1563 1563 1563 1563 1563 1563 1564 1565 1565 1566 1567 1567 1568 1568 1569 1570 1571 1572 1573 1574 1575 1576 1577 1578 1580 1581 1582
1557 1558 1558 1559 1559 1559 1560 1560 1560 1561 1561 1561 1561 1561 1561 1561 1562 1562 1562 1562 1562 1563 1563 1564 1564 1565 1565 1565 1566 1566 1567 1567 1568 1569 1570 1571 1573 1574 1575 1576 1577 1578 1579
1557 1557 1558 1558 1559 1559 1559 1560 1560 1560 1560 1560 1560 1560 1560 1560 1560 1561 1561 1562 1562 1562 1562 1562 1562 1563 1563 1563 1563 1564 1564 1565 1566 1567 1568 1569 1570 1571 1572 1573 1574 1575 1576
1557 1557 1558 1558 1558 1558 1558 1558 1558 1558 1558 1559 1559 1559 1559 1559 1559 1559 1560 1560 1560 1561 1561 1560 1560 1560 1560 1561 1561 1561 1561 1562 1563 1563 1564 1565 1566 1567 1568 1569 1570 1571 1572
1556 1557 1556 1557 1557 1557 1557 1557 1557 1557 1557 1558 1558 1558 1557 1558 1557 1558 1558 1558 1559 1559 1559 1559 1558 1558 1558 1558 1558 1558 1559 1559 1559 1560 1561 1562 1563 1564 1565 1566 1567 1567 1568
1554 1555 1555 1555 1556 1556 1555 1555 1555 1555 1555 1556 1556 1557 1556 1555 1555 1556 1556 1556 1557 1557 1557 1558 1557 1556 1556 1555 1555 1555 1555 1556 1557 1557 1558 1558 1559 1560 1561 1562 1563 1563 1564
1553 1553 1553 1554 1554 1554 1554 1554 1554 1554 1554 1554 1554 1555 1555 1554 1555 1555 1555 1555 1555 1554 1555 1555 1555 1554 1553 1553 1553 1553 1553 1553 1554 1554 1554 1555 1556 1556 1557 1558 1559 1559 1560
1551 1552 1552 1552 1551 1551 1551 1551 1551 1551 1552 1552 1552 1552 1552 1553 1553 1553 1553 1553 1553 1552 1553 1553 1553 1552 1551 1551 1551 1551 1551 1551 1551 1551 1551 1552 1552 1553 1553 1554 1554 1555 1555
1550 1550 1550 1550 1550 1549 1549 1549 1549 1549 1549 1549 1550 1550 1550 1550 1551 1551 1551 1551 1551 1551 1551 1551 1551 1550 1549 1549 1549 1549 1548 1548 1548 1548 1548 1549 1549 1549 1549 1550 1550 1551 1551
1548 1547 1548 1548 1548 1547 1547 1547 1547 1547 1547 1547 1547 1547 1547 1547 1548 1548 1548 1549 1549 1549 1549 1549 1548 1548 1548 1547 1547 1547 1547 1546 1546 1546 1546 1546 1546 1546 1546 1546 1546 1547 1547
1546 1547 1546 1546 1546 1545 1545 1544 1544 1544 1544 1544 1545 1545 1545 1545 1545 1546 1546 1547 1547 1547 1547 1547 1547 1546 1546 1546 1546 1545 1545 1544 1544 1543 1543 1543 1543 1543 1542 1542 1543 1543 1543
1545 1545 1544 1544 1544 1544 1543 1543 1543 1543 1543 1543 1543 1543 1543 1543 1543 1543 1543 1544 1545 1545 1545 1546 1546 1545 1545 1544 1544 1544 1543 1543 1542 1541 1541 1540 1540 1539 1539 1539 1539 1539 1539
1542 1542 1542 1542 1542 1542 1542 1541 1541 1542 1542 1541 1541 1542 1542 1542 1542 1542 1542 1542 1543 1543 1544 1544 1545 1544 1544 1544 1543 1542 1541 1541 1540 1539 1539 1538 1537 1537 1536 1536 1535 1535 1535
1540 1540 1540 1540 1540 1540 1540 1540 1540 1541 1540 1540 1540 1540 1541 1541 1540 1540 1541 1541 1541 1542 1542 1543 1543 1543 1543 1542 1542 1541 1540 1540 1539 1538 1537 1537 1536 1535 1534 1533 1532 1532 1532
1538 1538 1538 1539 1539 1540 1540 1540 1540 1540 1540 1539 1540 1540 1540 1540 1539 1539 1540 1540 1539 1540 1541 1541 1541 1542 1542 1541 1541 1540 1540 1539 1538 1537 1536 1535 1534 1533 1533 1532 1530 1530 1530
1538 1538 1538 1538 1539 1539 1539 1539 1539 1539 1539 1539 1539 1539 1539 1539 1539 1539 1539 1539 1539 1539 1539 1540 1540 1541 1540 1540 1540 1540 1539 1538 1537 1537 1536 1534 1533 1533 1532 1531 1530 1529 1528
1538 1538 1538 1538 1538 1538 1538 1539 1539 1539 1539 1539 1539 1539 1539 1539 1539 1538 1538 1538 1538 1539 1539 1539 1539 1539 1539 1539 1539 1539 1538 1537 1537 1536 1535 1534 1533 1532 1531 1530 1529 1528 1527
1538 1539 1539 1539 1539 1538 1539 1539 1539 1539 1539 1539 1539 1539 1539 1539 1539 1539 1538 1538 1538 1538 1538 1538 1538 1538 1538 1538 1538 1538 1537 1537 1536 1536 1535 1534 1533 1532 1531 1529 1528 1527 1526
1539 1539 1539 1539 1539 1540 1540 1540 1540 1540 1540 1540 1540 1540 1540 1540 1540 1539 1539 1538 1538 1538 1538 1538 1538 1538 1538 1537 1537 1537 1536 1536 1536 1536 1535 1534 1533 1532 1530 1529 1529 1527 1526
1540 1540 1540 1540 1540 1541 1541 1541 1541 1541 1541 1541 1541 1541 1541 1541 1540 1540 1539 1539 1539 1539 1539 1539 1538 1538 1538 1538 1537 1536 1536 1536 1535 1535 1535 1534 1533 1532 1531 1530 1529 1527 1526
1541 1541 1541 1542 1542 1542 1543 1542 1542 1542 1541 1542 1542 1542 1541 1541 1541 1541 1540 1540 1539 1539 1540 1540 1539 1539 1539 1538 1538 1538 1537 1536 1536 1535 1535 1534 1533 1532 1530 1529 1528 1527 1525
1542 1542 1543 1543 1543 1543 1544 1543 1543 1543 1542 1543 1543 1543 1543 1542 1542 1542 1541 1541 1541 1541 1541 1541 1541 1540 1540 1539 1538 1538 1536 1536 1535 1535 1534 1534 1532 1531 1530 1529 1527 1526 1524
1543 1544 1544 1544 1544 1544 1545 1544 1544 1544 1544 1544 1544 1544 1544 1544 1543 1543 1543 1542 1542 1542 1543 1542 1542 1542 1541 1540 1539 1538 1537 1536 1535 1535 1534 1533 1532 1530 1529 1528 1527 1525 1523